Regional Weather Roundup
Issued by NWS

Home | Current Version | Previous Version | Graphics & Text | Print | Product List | Glossary Off
Versions: 1 2 3 4 5 6 7 8 9 10 11 12 13 14 15 16 17 18 19 20 21 22 23 24 25 26 27 28 29 30 31 32 33 34 35 36 37 38 39 40 41 42 43 44 45 46 47 48 49 50

000
ASUS43 KFSD 240010
RWRSD

WEATHER ROUNDUP FOR SOUTH DAKOTA
NATIONAL WEATHER SERVICE SIOUX FALLS SD
700 PM CDT WED AUG 23 2017

NOTE: "FAIR" INDICATES FEW OR NO CLOUDS BELOW 12,000 FEET WITH NO
SIGNIFICANT WEATHER AND/OR OBSTRUCTIONS TO VISIBILITY.


SDZ001>005-009-010-012>017-240100-
NORTHWEST AND NORTH CENTRAL SOUTH DAKOTA

CITY           SKY/WX    TMP DP  RH WIND       PRES   REMARKS
BUFFALO          N/A     89  44  20 NE6       29.90S
FAITH            N/A     82  59  45 E12       29.95S
MOBRIDGE       SUNNY     81  63  54 E10       29.90F
$$

SDZ012>016-024>037-041>051-057-063-072>074-240100-
SOUTHWEST AND SOUTH CENTRAL SOUTH DAKOTA

CITY           SKY/WX    TMP DP  RH WIND       PRES   REMARKS
RAPID CTY ARPT SUNNY     81  52  36 NE6       29.95S
PIERRE         SUNNY     85  61  44 NE10      29.87F
CUSTER         SUNNY     77  48  35 E20       30.11S
ELLSWORTH AFB  SUNNY     89  46  21 N7        29.95S
PHILIP         SUNNY     90  56  31 NE10      29.88S
PINE RIDGE     MOSUNNY   91  54  28 E8        29.94S
SPEARFISH      LGT RAIN  86  45  23 NE9       30.01S
WINNER         FAIR      86  65  49 S10       29.89F
$$

SDZ004>011-016>023-039-040-240100-
NORTHEAST SOUTH DAKOTA

CITY           SKY/WX    TMP DP  RH WIND       PRES   REMARKS
ABERDEEN       SUNNY     78  61  55 SE8       29.95S
WATERTOWN      PTSUNNY   73  59  61 SE10      29.99S
BROOKINGS      PTSUNNY   72  59  63 SE12      30.00F
SISSETON         N/A     75  55  49 SE10      29.96F
$$

SDZ017-020-022-023-036>040-048>070-240100-
SOUTHEAST SOUTH DAKOTA

CITY           SKY/WX    TMP DP  RH WIND       PRES   REMARKS
SIOUX FALLS    CLOUDY    72  64  76 E9        30.00S
HURON          SUNNY     78  61  55 SE13      29.93F
CHAMBERLAIN    SUNNY     86  65  49 SE8       29.88F
MITCHELL       SUNNY     80  62  54 SE14      29.94F
YANKTON        SUNNY     77  59  53 S13       29.97F
$$

ABBREVIATIONS USED IN REMARKS
   TC - TEMPERATURE IN CELSIUS
  WCI - WIND CHILL INDEX
   HX - HEAT INDEX
  VSB - VISIBILITY





USA.gov is the U.S. government's official web portal to all federal, state and local government web resources and services.